Radiation Dose at Monitoring Post of Fukushima Daini Nuclear Power Station
Date,Time,MP-1(microSv/h),MP-2(microSv/h),MP-3(microSv/h),MP-4(microSv/h),MP-5(microSv/h),MP-6(microSv/h),MP-7(microSv/h),Wind Direction,Wind Velocity(m/s),Rain
2017/03/25,00:00,0.387,0.234,0.396,0.365,0.332,0.195,0.163,west-southwest,2.3,No
2017/03/25,00:10,0.388,0.233,0.397,0.365,0.332,0.193,0.164,west-southwest,1.9,No
2017/03/25,00:20,0.387,0.234,0.395,0.366,0.332,0.193,0.163,west-northwest,1.4,No
2017/03/25,00:30,0.387,0.234,0.397,0.366,0.332,0.193,0.164,northwest,1.4,No
2017/03/25,00:40,0.387,0.234,0.397,0.366,0.332,0.194,0.163,northwest,2.3,No
2017/03/25,00:50,0.388,0.234,0.395,0.364,0.333,0.193,0.164,north-northwest,1.5,No
2017/03/25,01:00,0.388,0.233,0.397,0.367,0.333,0.193,0.164,northwest,1.7,No
2017/03/25,01:10,0.387,0.233,0.397,0.365,0.332,0.193,0.163,north-northwest,1.8,No
2017/03/25,01:20,0.386,0.234,0.397,0.365,0.332,0.193,0.163,northwest,2.2,No
2017/03/25,01:30,0.388,0.233,0.396,0.365,0.332,0.193,0.164,west-northwest,2.5,No
2017/03/25,01:40,0.388,0.235,0.396,0.365,0.333,0.194,0.163,northwest,2.6,No
2017/03/25,01:50,0.388,0.235,0.396,0.367,0.331,0.194,0.163,northwest,4.2,No
2017/03/25,02:00,0.387,0.233,0.397,0.365,0.332,0.194,0.163,northwest,4.5,No
2017/03/25,02:10,0.388,0.233,0.398,0.366,0.331,0.194,0.164,north-northwest,2.0,No
2017/03/25,02:20,0.389,0.234,0.396,0.365,0.332,0.193,0.162,northwest,2.5,No
2017/03/25,02:30,0.388,0.234,0.398,0.365,0.332,0.195,0.163,northwest,3.0,No
2017/03/25,02:40,0.388,0.233,0.397,0.365,0.332,0.194,0.163,northwest,3.0,No
2017/03/25,02:50,0.388,0.233,0.396,0.365,0.331,0.193,0.163,northwest,2.7,No
2017/03/25,03:00,0.388,0.232,0.398,0.364,0.333,0.194,0.163,west-northwest,4.1,No
2017/03/25,03:10,0.388,0.233,0.396,0.365,0.332,0.193,0.163,west-northwest,3.4,No
2017/03/25,03:20,0.387,0.233,0.396,0.366,0.332,0.194,0.163,west-northwest,2.9,No
2017/03/25,03:30,0.387,0.234,0.397,0.365,0.331,0.193,0.164,west-northwest,4.5,No
2017/03/25,03:40,0.388,0.232,0.396,0.366,0.333,0.194,0.163,northwest,5.5,No
2017/03/25,03:50,0.389,0.234,0.397,0.364,0.331,0.192,0.163,northwest,5.9,No
2017/03/25,04:00,0.387,0.234,0.395,0.365,0.331,0.194,0.164,northwest,5.0,No
2017/03/25,04:10,0.388,0.234,0.396,0.365,0.332,0.192,0.163,northwest,3.9,No
2017/03/25,04:20,0.387,0.233,0.396,0.367,0.332,0.193,0.162,northwest,4.2,No
2017/03/25,04:30,0.387,0.234,0.395,0.365,0.332,0.192,0.164,west-northwest,5.4,No
2017/03/25,04:40,0.389,0.232,0.395,0.365,0.332,0.194,0.163,west-northwest,5.1,No
2017/03/25,04:50,0.387,0.234,0.396,0.364,0.331,0.193,0.164,west-northwest,4.5,No
2017/03/25,05:00,0.387,0.233,0.396,0.364,0.332,0.194,0.163,west-northwest,3.9,No
2017/03/25,05:10,0.390,0.233,0.397,0.365,0.333,0.194,0.164,west-northwest,4.2,No
2017/03/25,05:20,0.388,0.234,0.398,0.365,0.332,0.193,0.164,west,3.4,No
2017/03/25,05:30,0.388,0.234,0.398,0.364,0.332,0.193,0.164,west,3.9,No
2017/03/25,05:40,0.389,0.233,0.396,0.364,0.332,0.193,0.163,west-northwest,4.5,No
2017/03/25,05:50,0.386,0.232,0.396,0.364,0.332,0.192,0.163,west-northwest,4.8,No
2017/03/25,06:00,0.388,0.232,0.396,0.364,0.332,0.194,0.163,northwest,4.5,No
2017/03/25,06:10,0.385,0.232,0.396,0.365,0.333,0.192,0.164,northwest,3.1,No
2017/03/25,06:20,0.390,0.233,0.396,0.364,0.332,0.193,0.163,north-northwest,3.4,No
2017/03/25,06:30,0.387,0.232,0.395,0.364,0.332,0.194,0.163,north-northwest,4.5,No
2017/03/25,06:40,0.387,0.233,0.396,0.364,0.331,0.193,0.164,northwest,3.9,No
2017/03/25,06:50,0.386,0.233,0.396,0.365,0.332,0.193,0.164,northwest,4.7,No
2017/03/25,07:00,0.387,0.233,0.396,0.366,0.333,0.192,0.163,northwest,4.1,No
2017/03/25,07:10,0.389,0.233,0.397,0.363,0.332,0.193,0.164,northwest,1.7,No
2017/03/25,07:20,0.388,0.234,0.397,0.364,0.331,0.193,0.163,north-northwest,2.7,No
2017/03/25,07:30,0.388,0.234,0.396,0.365,0.333,0.194,0.163,north,3.2,No
2017/03/25,07:40,0.387,0.233,0.396,0.365,0.333,0.192,0.163,north-northwest,2.5,No
2017/03/25,07:50,0.387,0.233,0.396,0.363,0.332,0.193,0.163,north-northwest,2.9,No
2017/03/25,08:00,0.387,0.232,0.395,0.365,0.332,0.193,0.162,north,5.2,No
2017/03/25,08:10,0.387,0.232,0.395,0.362,0.333,0.193,0.162,north,3.6,No
2017/03/25,08:20,0.386,0.232,0.396,0.363,0.333,0.193,0.164,north,2.8,No
2017/03/25,08:30,0.386,0.232,0.395,0.364,0.332,0.193,0.162,north-northwest,6.2,No
2017/03/25,08:40,0.385,0.232,0.396,0.361,0.331,0.193,0.163,north,6.7,No
2017/03/25,08:50,0.386,0.232,0.396,0.364,0.333,0.192,0.162,north-northwest,6.6,No
2017/03/25,09:00,0.387,0.232,0.396,0.362,0.332,0.192,0.163,north-northwest,4.7,No
2017/03/25,09:10,0.387,0.232,0.398,0.364,0.331,0.191,0.163,north-northwest,7.3,No
2017/03/25,09:20,0.387,0.233,0.394,0.364,0.333,0.192,0.162,northwest,6.2,No
2017/03/25,09:30,0.389,0.233,0.395,0.364,0.329,0.191,0.163,north-northwest,6.4,No
2017/03/25,09:40,0.387,0.233,0.398,0.362,0.332,0.191,0.163,north-northwest,6.3,No
2017/03/25,09:50,0.387,0.234,0.395,0.364,0.331,0.192,0.163,north-northeast,5.0,No
2017/03/25,10:00,0.387,0.233,0.397,0.364,0.332,0.191,0.163,northeast,7.0,No
2017/03/25,10:10,0.385,0.232,0.396,0.362,0.333,0.192,0.163,north-northeast,6.8,No
2017/03/25,10:20,0.388,0.234,0.396,0.366,0.332,0.192,0.162,northeast,6.7,No
2017/03/25,10:30,0.386,0.232,0.395,0.362,0.334,0.192,0.163,northeast,5.2,No
2017/03/25,10:40,0.386,0.232,0.395,0.367,0.331,0.192,0.163,northeast,5.9,No
2017/03/25,10:50,0.385,0.233,0.396,0.361,0.334,0.191,0.163,northeast,5.3,No
2017/03/25,11:00,0.385,0.233,0.393,0.366,0.333,0.192,0.164,northeast,5.4,No
2017/03/25,11:10,0.388,0.233,0.396,0.363,0.332,0.193,0.163,northeast,4.7,No
2017/03/25,11:20,0.385,0.233,0.392,0.367,0.335,0.194,0.163,east-northeast,4.9,No
2017/03/25,11:30,0.388,0.233,0.396,0.364,0.332,0.192,0.163,east-northeast,4.5,No
2017/03/25,11:40,0.386,0.233,0.392,0.366,0.334,0.192,0.164,northeast,5.3,No
2017/03/25,11:50,0.388,0.234,0.395,0.364,0.331,0.192,0.163,north-northeast,5.3,No
2017/03/25,12:00,0.386,0.233,0.393,0.367,0.332,0.192,0.163,northeast,5.7,No
2017/03/25,12:10,0.388,0.234,0.394,0.363,0.331,0.192,0.165,east-northeast,4.5,No
2017/03/25,12:20,0.387,0.233,0.396,0.366,0.332,0.192,0.164,northeast,3.7,No
2017/03/25,12:30,0.385,0.234,0.395,0.363,0.332,0.192,0.163,east-northeast,3.9,No
2017/03/25,12:40,0.388,0.233,0.394,0.366,0.333,0.193,0.164,east-northeast,3.7,No
2017/03/25,12:50,0.385,0.232,0.396,0.363,0.334,0.193,0.165,east,1.9,No
2017/03/25,13:00,0.387,0.234,0.392,0.367,0.330,0.192,0.164,east-northeast,3.1,No
2017/03/25,13:10,0.386,0.233,0.397,0.365,0.333,0.193,0.163,east-northeast,2.8,No
2017/03/25,13:20,0.386,0.233,0.393,0.366,0.330,0.192,0.163,east-northeast,3.3,No
2017/03/25,13:30,0.387,0.234,0.397,0.364,0.332,0.192,0.165,northeast,2.5,No
2017/03/25,13:40,0.387,0.233,0.394,0.365,0.331,0.192,0.163,east-northeast,2.8,No
2017/03/25,13:50,0.389,0.234,0.396,0.365,0.333,0.192,0.164,east,2.3,No
2017/03/25,14:00,0.386,0.232,0.393,0.365,0.332,0.192,0.163,east-northeast,2.5,No
2017/03/25,14:10,0.389,0.233,0.395,0.365,0.333,0.193,0.164,east-northeast,2.2,No
2017/03/25,14:20,0.388,0.234,0.394,0.366,0.332,0.193,0.164,east-northeast,2.1,No
2017/03/25,14:30,0.389,0.233,0.397,0.366,0.332,0.193,0.163,east-southeast,1.1,No
2017/03/25,14:40,0.387,0.234,0.396,0.368,0.334,0.191,0.165,east,2.3,No
2017/03/25,14:50,0.388,0.235,0.396,0.366,0.334,0.193,0.164,east-northeast,1.7,No
2017/03/25,15:00,0.389,0.234,0.399,0.367,0.334,0.193,0.164,east-northeast,3.1,No
2017/03/25,15:10,0.389,0.234,0.397,0.367,0.334,0.193,0.164,east,2.5,No
2017/03/25,15:20,0.388,0.234,0.397,0.366,0.331,0.193,0.164,east,1.5,No
2017/03/25,15:30,0.390,0.233,0.396,0.368,0.334,0.194,0.165,east,1.4,No
2017/03/25,15:40,0.388,0.233,0.396,0.366,0.333,0.192,0.165,east,0.7,No
2017/03/25,15:50,0.389,0.233,0.397,0.365,0.331,0.193,0.164,southeast,1.1,No
2017/03/25,16:00,0.387,0.233,0.398,0.367,0.335,0.194,0.164,southeast,1.1,No
2017/03/25,16:10,0.386,0.233,0.395,0.366,0.331,0.193,0.164,south-southeast,1.4,No
2017/03/25,16:20,0.389,0.234,0.396,0.366,0.333,0.192,0.164,south-southeast,1.4,No
2017/03/25,16:30,0.387,0.234,0.397,0.368,0.332,0.193,0.164,south-southeast,1.8,No
2017/03/25,16:40,0.388,0.233,0.399,0.366,0.332,0.193,0.164,southeast,0.9,No
2017/03/25,16:50,0.389,0.233,0.397,0.367,0.334,0.193,0.164,south-southeast,1.7,No
2017/03/25,17:00,0.389,0.233,0.396,0.367,0.332,0.194,0.164,south,1.2,No
2017/03/25,17:10,0.388,0.234,0.398,0.367,0.332,0.194,0.165,northeast,0.5,No
2017/03/25,17:20,0.389,0.234,0.397,0.367,0.333,0.193,0.164,-,CALM,No
2017/03/25,17:30,0.388,0.233,0.397,0.366,0.333,0.193,0.164,-,CALM,No
2017/03/25,17:40,0.386,0.233,0.397,0.367,0.333,0.193,0.164,-,CALM,No
2017/03/25,17:50,0.386,0.232,0.397,0.366,0.334,0.194,0.163,-,CALM,No
2017/03/25,18:00,0.389,0.233,0.397,0.365,0.334,0.193,0.164,south-southwest,0.6,No
2017/03/25,18:10,0.389,0.232,0.399,0.366,0.334,0.194,0.164,southwest,0.7,No
2017/03/25,18:20,0.388,0.234,0.397,0.367,0.332,0.193,0.164,south-southwest,0.7,No
2017/03/25,18:30,0.387,0.232,0.396,0.366,0.333,0.194,0.165,-,CALM,No
2017/03/25,18:40,0.389,0.235,0.397,0.366,0.332,0.193,0.164,-,CALM,No
2017/03/25,18:50,0.388,0.234,0.398,0.367,0.331,0.193,0.164,-,CALM,No
2017/03/25,19:00,0.389,0.234,0.398,0.367,0.331,0.194,0.164,-,CALM,No
2017/03/25,19:10,0.389,0.234,0.397,0.366,0.334,0.194,0.165,southwest,1.1,No
2017/03/25,19:20,0.387,0.234,0.398,0.365,0.334,0.194,0.165,west-southwest,0.6,No
2017/03/25,19:30,0.388,0.234,0.397,0.368,0.333,0.193,0.164,-,CALM,No
2017/03/25,19:40,0.387,0.235,0.398,0.368,0.333,0.193,0.164,southwest,2.5,No
2017/03/25,19:50,0.388,0.234,0.395,0.367,0.334,0.194,0.165,south-southwest,4.0,No
2017/03/25,20:00,0.389,0.234,0.397,0.366,0.333,0.194,0.163,south-southwest,3.6,No
2017/03/25,20:10,0.388,0.233,0.397,0.368,0.332,0.194,0.164,south-southwest,4.0,No
2017/03/25,20:20,0.387,0.234,0.398,0.367,0.334,0.193,0.164,south-southwest,4.1,No
2017/03/25,20:30,0.389,0.233,0.399,0.366,0.332,0.194,0.164,south-southwest,4.8,No
2017/03/25,20:40,0.389,0.233,0.398,0.367,0.333,0.193,0.164,south-southwest,4.3,No
2017/03/25,20:50,0.387,0.234,0.398,0.367,0.334,0.194,0.164,south-southwest,2.9,No
2017/03/25,21:00,0.388,0.234,0.398,0.366,0.333,0.193,0.164,south-southwest,3.6,No
2017/03/25,21:10,0.390,0.233,0.397,0.366,0.333,0.193,0.164,south-southwest,3.4,No
2017/03/25,21:20,0.387,0.233,0.398,0.367,0.333,0.194,0.164,southwest,3.3,No
2017/03/25,21:30,0.387,0.234,0.397,0.369,0.333,0.194,0.164,south-southwest,2.7,No
2017/03/25,21:40,0.389,0.234,0.398,0.366,0.335,0.193,0.165,south-southwest,2.2,No
2017/03/25,21:50,0.389,0.233,0.398,0.366,0.334,0.194,0.165,south-southwest,2.0,No
2017/03/25,22:00,0.390,0.233,0.398,0.368,0.332,0.193,0.164,south-southwest,3.0,No
2017/03/25,22:10,0.387,0.233,0.398,0.366,0.333,0.194,0.164,south-southwest,2.6,No
2017/03/25,22:20,0.389,0.234,0.397,0.366,0.334,0.194,0.165,south-southwest,2.8,No
2017/03/25,22:30,0.389,0.233,0.398,0.367,0.332,0.194,0.165,south-southwest,3.4,No
2017/03/25,22:40,0.389,0.234,0.398,0.366,0.332,0.194,0.165,south-southwest,2.8,No
2017/03/25,22:50,0.389,0.235,0.398,0.368,0.334,0.193,0.164,south-southwest,2.9,No
2017/03/25,23:00,0.388,0.233,0.398,0.367,0.335,0.194,0.165,south-southwest,1.7,No
2017/03/25,23:10,0.390,0.233,0.398,0.366,0.333,0.194,0.165,south-southwest,1.3,No
2017/03/25,23:20,0.388,0.235,0.398,0.366,0.334,0.195,0.165,south-southwest,0.6,No
2017/03/25,23:30,0.387,0.234,0.397,0.368,0.332,0.193,0.164,south,1.2,No
2017/03/25,23:40,0.390,0.234,0.397,0.365,0.334,0.193,0.165,southwest,1.8,No
2017/03/25,23:50,0.389,0.233,0.399,0.366,0.332,0.193,0.165,southwest,1.8,No
